Station NUET2 - 8775244 - Nueces Bay, TX Image indicating link to RSS feed of recent meteorological observations for station NUET2


Conditions at NUET2 as of
(4:18 pm CDT)
2118 GMT on 05/30/2024:
     

Click on the graph icon in the table below to see a time series plot of the last five days of that observation.

5-day plot - Wind Direction Wind Direction (WDIR):SSE ( 150 deg true )
5-day plot - Wind Speed Wind Speed (WSPD): 15.9 kts
5-day plot - Wind Gust Wind Gust (GST): 22.0 kts
5-day plot - Atmospheric Pressure Atmospheric Pressure (PRES):29.78 in
5-day plot - Water Temperature Water Temperature (WTMP): 87.1 °F
5-day plot - Wind Speed at 10 Meters Wind Speed at 10 meters (WSPD10M): 15.5 kts
5-day plot - Wind Speed at 20 Meters Wind Speed at 20 meters (WSPD20M): 17.5 kts
5-day plot -  Wind Speed, Wind Gust and Atmospheric Pressure Combined plot of Wind Speed, Gust, and Air Pressure
NOS Water Level Observation Network Water Level
Previous observations
TIME
(CDT)
5-day plot - Wind Direction
WDIR
 
5-day plot - Wind Speed
WSPD
kts
5-day plot - Wind Gust
GST
kts
5-day plot - Wave Height
WVHT
ft
5-day plot - Dominant Wave Period
DPD
sec
5-day plot - Average Wave Period
APD
sec
5-day plot - Mean Wave Direction
MWD
 
5-day plot - Atmospheric Pressure
PRES
in
5-day plot - Pressure Tendency
PTDY
in
5-day plot - Air Temperature
ATMP
°F
5-day plot - Water Temperature
WTMP
°F
5-day plot - Dew Point
DEWP
°F
5-day plot - Salinity
SAL
psu
5-day plot - Visibility
VIS
nmi
5-day plot - Tide (above MLLW)
TIDE
ft
2024-05-30 04:12 pmSSE 15.0 21.0----29.78-- 87.1----
2024-05-30 04:06 pmSSE 19.0 22.9----29.78-- 87.1----
2024-05-30 04:00 pm SE 19.0 22.9----29.78-0.08- 87.1----
2024-05-30 03:54 pm SE 21.0 22.9----29.78-- 87.1----
2024-05-30 03:48 pmSSE 19.0 22.9----29.79-- 87.1----
2024-05-30 03:42 pmSSE 15.9 21.0----29.79-- 87.1----
2024-05-30 03:36 pmSSE 15.9 21.0----29.79-- 87.1----
2024-05-30 03:30 pmSSE 19.0 22.9----29.80-- 87.1----
2024-05-30 03:24 pm SE 18.1 22.0----29.80-- 87.1----
2024-05-30 03:18 pmSSE 17.1 22.9----29.80-- 87.1----
2024-05-30 03:12 pm SE 19.0 21.0----29.80-- 87.1----
2024-05-30 03:06 pmSSE 15.0 20.0----29.80-- 86.9----
2024-05-30 03:00 pmSSE 17.1 20.0----29.81-0.07- 86.9----
2024-05-30 02:54 pmSSE 15.0 22.9----29.81-- 86.9----
2024-05-30 02:48 pmSSE 17.1 20.0----29.81-- 86.9----
2024-05-30 02:42 pmSSE 15.0 20.0----29.81-- 86.9----
2024-05-30 02:36 pmSSE 15.9 20.0----29.81-- 86.9----
2024-05-30 02:30 pmSSE 18.1 22.0----29.81-- 86.7----
2024-05-30 02:24 pmSSE 15.0 21.0----29.81-- 86.7----
2024-05-30 02:18 pmSSE 15.9 19.0----29.82-- 86.7----
2024-05-30 02:12 pm S 15.9 20.0----29.82-- 86.7----
2024-05-30 02:06 pm S 17.1 19.0----29.82-- 86.5----
2024-05-30 02:00 pm S 15.0 19.0----29.82-0.06- 86.5----
2024-05-30 01:54 pmSSE 15.9 21.0----29.83-- 86.4----
2024-05-30 01:48 pm S 17.1 21.0----29.83-- 86.4----
2024-05-30 01:42 pm S 15.0 19.0----29.83-- 86.4----
2024-05-30 01:36 pm S 15.0 20.0----29.83-- 86.2----
2024-05-30 01:30 pm S 17.1 19.0----29.83-- 86.2----
2024-05-30 01:24 pm S 14.0 19.0----29.84-- 86.2----
2024-05-30 01:18 pmSSE 13.0 17.1----29.85-- 86.0----
2024-05-30 01:12 pmSSE 14.0 18.1----29.85-- 86.0----
2024-05-30 01:06 pm S 12.0 15.9----29.85-- 86.0----
2024-05-30 01:00 pm S 13.0 18.1----29.86-0.03- 86.0----
2024-05-30 12:54 pmSSE 15.0 19.0----29.86-- 86.0----
2024-05-30 12:48 pm S 14.0 18.1----29.86-- 85.8----
2024-05-30 12:42 pm S 13.0 15.9----29.86-- 85.8----
2024-05-30 12:36 pm S 13.0 17.1----29.86-- 85.8----
2024-05-30 12:30 pm S 13.0 15.9----29.87-- 85.6----
2024-05-30 12:24 pmSSE 14.0 18.1----29.87-- 85.6----
2024-05-30 12:18 pm S 12.0 20.0----29.87-- 85.6----
2024-05-30 12:12 pmSSE 13.0 15.9----29.87-- 85.6----
2024-05-30 12:06 pm S 14.0 19.0----29.88-- 85.5----
2024-05-30 12:00 pmSSE 13.0 15.9----29.88-0.02- 85.5----
2024-05-30 11:54 am S 12.0 15.0----29.88-- 85.5----
2024-05-30 11:48 amSSE 12.0 15.0----29.88-- 85.5----
2024-05-30 11:42 am S 11.1 17.1----29.88-- 85.5----
2024-05-30 11:36 am S 14.0 17.1----29.88-- 85.3----
2024-05-30 11:30 amSSE 13.0 15.0----29.88-- 85.3----
2024-05-30 11:24 am S 11.1 15.0----29.88-- 85.3----
2024-05-30 11:18 amSSE 12.0 15.9----29.88-- 85.3----
2024-05-30 11:12 am S 11.1 15.0----29.88-- 85.3----
2024-05-30 11:06 am S 11.1 17.1----29.88-- 85.3----
2024-05-30 11:00 am S 12.0 17.1----29.88+0.00- 85.1----
2024-05-30 10:54 am S 12.0 15.9----29.88-- 85.1----
2024-05-30 10:48 am S 14.0 15.0----29.88-- 85.1----
2024-05-30 10:42 am S 13.0 15.9----29.88-- 85.1----
2024-05-30 10:36 amSSE 9.9 15.9----29.88-- 85.1----
2024-05-30 10:30 am S 12.0 15.9----29.88-- 84.9----
2024-05-30 10:24 am S 15.0 17.1----29.88-- 84.9----
2024-05-30 10:18 amSSE 15.0 15.9----29.88-- 84.9----
2024-05-30 10:12 am S 12.0 15.9----29.89-- 84.9----
2024-05-30 10:06 am S 15.0 18.1----29.89-- 84.9----
2024-05-30 10:00 am S 14.0 17.1----29.89+0.02- 84.9----
2024-05-30 09:54 amSSE 14.0 17.1----29.89-- 84.9----
2024-05-30 09:48 am S 14.0 19.0----29.89-- 84.9----
2024-05-30 09:42 am S 11.1 13.0----29.90-- 84.9----
2024-05-30 09:36 am S 11.1 15.9----29.90-- 84.9----
2024-05-30 09:30 am S 13.0 15.9----29.89-- 84.9----
2024-05-30 09:24 am S 13.0 15.0----29.90-- 84.9----
2024-05-30 09:18 am S 9.9 13.0----29.90-- 84.9----
2024-05-30 09:12 am S 8.9 15.9----29.90-- 84.9----
2024-05-30 09:06 am S 13.0 15.9----29.90-- 84.9----
2024-05-30 09:00 am S 11.1 15.0----29.90+0.04- 84.9----
2024-05-30 08:54 am S 14.0 17.1----29.89-- 84.9----
2024-05-30 08:48 am S 9.9 13.0----29.89-- 84.9----
2024-05-30 08:42 am S 11.1 14.0----29.89-- 84.9----
2024-05-30 08:36 am S 9.9 15.0----29.89-- 84.9----
2024-05-30 08:30 am S 11.1 15.9----29.89-- 84.9----
2024-05-30 08:24 am S 9.9 14.0----29.89-- 84.9----
2024-05-30 08:18 am S 11.1 13.0----29.88-- 85.1----
2024-05-30 08:12 am S 9.9 14.0----29.89-- 85.1----
2024-05-30 08:06 am S 11.1 15.0----29.88-- 85.1----
2024-05-30 08:00 am S 9.9 14.0----29.88-- 85.3----
2024-05-30 07:54 am S 8.9 13.0----29.88-- 85.3----
2024-05-30 07:48 am S 9.9 11.1----29.88-- 85.3----
2024-05-30 07:42 am S 8.9 12.0----29.87-- 85.3----
2024-05-30 07:36 am S 8.0 12.0----29.88-- 85.3----
2024-05-30 07:30 am S 6.0 8.9----29.88-- 85.3----
2024-05-30 07:24 am S 8.9 9.9----29.87-- 85.5----
2024-05-30 07:18 amSSE 6.0 8.9----29.87-- 85.5----
2024-05-30 07:12 am S 6.0 9.9----29.87-- 85.5----
2024-05-30 07:06 am S 8.0 11.1----29.87-- 85.5----
2024-05-30 07:00 am S 8.9 11.1----29.87-- 85.5----
2024-05-30 06:54 am S 8.9 12.0----29.87-- 85.5----
2024-05-30 06:48 am S 11.1 13.0----29.87-- 85.5----
2024-05-30 06:42 am S 9.9 13.0----29.86-- 85.5----
2024-05-30 06:36 am S 8.9 12.0----29.86-- 85.5----
2024-05-30 06:30 am S 8.9 11.1----29.86-- 85.5----
2024-05-30 06:24 am S 7.0 11.1----29.86-- 85.6----
2024-05-30 06:18 am S 9.9 12.0----29.86-- 85.6----
2024-05-30 06:12 am S 8.9 9.9----29.87-- 85.6----
2024-05-30 06:06 am S 9.9 13.0----29.86-- 85.6----
2024-05-30 06:00 am S 8.9 11.1----29.86-- 85.6----
2024-05-30 05:54 am S 7.0 8.9----29.86-- 85.6----
2024-05-30 05:48 am S 6.0 11.1----29.86-- 85.6----
2024-05-30 05:42 am S 8.9 14.0----29.86-- 85.6----
2024-05-30 05:36 am S 11.1 15.0----29.86-- 85.6----
2024-05-30 05:30 am S 9.9 13.0----29.85-- 85.6----
2024-05-30 05:24 am S 9.9 14.0----29.85-- 85.6----
2024-05-30 05:18 am S 11.1 13.0----29.85-- 85.8----
2024-05-30 05:12 am S 9.9 11.1----29.86-- 85.8----
2024-05-30 05:06 am S 8.0 11.1----29.87-- 85.8----
2024-05-30 05:00 am S 6.0 8.9----29.88-0.02- 85.8----
2024-05-30 04:54 am S 7.0 8.9----29.88-- 85.8----
2024-05-30 04:48 am S 7.0 9.9----29.88-- 85.8----
2024-05-30 04:42 am S 7.0 9.9----29.88-- 85.8----
2024-05-30 04:36 am S 6.0 9.9----29.88-- 85.8----
2024-05-30 04:30 am S 8.0 9.9----29.88-- 85.8----
2024-05-30 04:24 am S 8.9 11.1----29.88-- 85.8----
2024-05-30 04:18 am S 8.0 11.1----29.88-- 85.8----
2024-05-30 04:12 am S 9.9 13.0----29.88-- 86.0----
2024-05-30 04:06 am S 12.0 15.0----29.87-- 86.0----
2024-05-30 04:00 am S 9.9 13.0----29.88-0.02- 86.0----
2024-05-30 03:54 am S 11.1 13.0----29.88-- 86.0----
2024-05-30 03:48 am S 9.9 12.0----29.88-- 86.0----
2024-05-30 03:42 am S 11.1 14.0----29.88-- 86.0----
2024-05-30 03:36 am S 8.0 13.0----29.88-- 86.0----
2024-05-30 03:30 am S 8.0 9.9----29.87-- 86.0----
2024-05-30 03:24 am S 8.9 12.0----29.87-- 86.0----
2024-05-30 03:18 am S 9.9 13.0----29.87-- 86.0----
2024-05-30 03:12 am S 8.9 11.1----29.87-- 86.0----
2024-05-30 03:06 am S 8.0 9.9----29.87-- 86.0----
2024-05-30 03:00 am S 7.0 8.9----29.88-0.04- 86.0----
2024-05-30 02:54 am S 8.0 9.9----29.88-- 86.0----
2024-05-30 02:48 am S 7.0 9.9----29.89-- 86.0----
2024-05-30 02:42 am S 8.9 9.9----29.88-- 86.0----
2024-05-30 02:36 am S 7.0 11.1----29.88-- 86.0----
2024-05-30 02:30 am S 8.9 11.1----29.88-- 86.0----
2024-05-30 02:24 am S 11.1 12.0----29.89-- 86.2----
2024-05-30 02:18 am S 11.1 14.0----29.90-- 86.2----
2024-05-30 02:12 amSSW 6.0 8.9----29.90-- 86.2----
2024-05-30 02:06 am S 8.0 11.1----29.91-- 86.2----
2024-05-30 02:00 am S 12.0 13.0----29.90-0.01- 86.2----
2024-05-30 01:54 amSSW 6.0 8.0----29.90-- 86.2----
2024-05-30 01:48 amSSW 6.0 9.9----29.91-- 86.2----
2024-05-30 01:42 am S 8.9 11.1----29.91-- 86.2----
2024-05-30 01:36 am S 8.0 11.1----29.90-- 86.2----
2024-05-30 01:30 am S 7.0 11.1----29.90-- 86.2----
2024-05-30 01:24 am S 8.9 12.0----29.89-- 86.2----
2024-05-30 01:18 am S 9.9 13.0----29.89-- 86.2----
2024-05-30 01:12 am S 9.9 13.0----29.89-- 86.2----
2024-05-30 01:06 am S 11.1 13.0----29.89-- 86.2----
2024-05-30 01:00 am S 11.1 14.0----29.90+0.00- 86.2----
2024-05-30 12:54 am S 8.0 9.9----29.90-- 86.4----
2024-05-30 12:48 am S 8.9 12.0----29.90-- 86.4----
2024-05-30 12:42 am S 8.0 13.0----29.90-- 86.4----
2024-05-30 12:36 am S 11.1 14.0----29.91-- 86.4----
2024-05-30 12:30 am S 12.0 15.0----29.90-- 86.4----
2024-05-30 12:24 am S 8.0 11.1----29.91-- 86.4----
2024-05-30 12:18 am S 9.9 11.1----29.91-- 86.4----
2024-05-30 12:12 am S 9.9 14.0----29.91-- 86.5----
2024-05-30 12:06 am S 13.0 15.9----29.91-- 86.5----
2024-05-30 12:00 am S 9.9 13.0----29.91+0.04- 86.5----
2024-05-29 11:54 pm S 13.0 15.9----29.91-- 86.5----
2024-05-29 11:48 pm S 8.9 14.0----29.91-- 86.7----
2024-05-29 11:42 pm S 13.0 15.9----29.91-- 86.7----
2024-05-29 11:36 pmSSE 13.0 17.1----29.91-- 86.7----
2024-05-29 11:30 pm S 14.0 17.1----29.91-- 86.7----
2024-05-29 11:24 pm S 14.0 18.1----29.91-- 86.9----
2024-05-29 11:18 pm S 15.9 18.1----29.91-- 86.9----
2024-05-29 11:12 pm S 12.0 14.0----29.90-- 86.9----
2024-05-29 11:06 pm S 11.1 15.9----29.91-- 86.9----
2024-05-29 11:00 pmSSE 13.0 19.0----29.91+0.05- 86.9----
2024-05-29 10:54 pm S 15.0 17.1----29.91-- 86.9----
2024-05-29 10:48 pmSSE 11.1 14.0----29.91-- 86.9----
2024-05-29 10:42 pmSSE 13.0 17.1----29.91-- 86.9----
2024-05-29 10:36 pmSSE 14.0 17.1----29.91-- 87.1----
2024-05-29 10:30 pmSSE 15.9 18.1----29.91-- 87.1----
2024-05-29 10:24 pmSSE 14.0 17.1----29.91-- 87.1----
2024-05-29 10:18 pmSSE 14.0 18.1----29.90-- 87.1----
2024-05-29 10:12 pmSSE 12.0 18.1----29.91-- 87.1----
2024-05-29 10:06 pmSSE 15.9 17.1----29.90-- 87.1----
2024-05-29 10:00 pmSSE 15.0 17.1----29.90+0.03- 87.3----
2024-05-29 09:54 pmSSE 14.0 15.9----29.90-- 87.3----
2024-05-29 09:48 pmSSE 12.0 15.0----29.90-- 87.3----
2024-05-29 09:42 pmSSE 13.0 15.9----29.90-- 87.4----
2024-05-29 09:36 pmSSE 12.0 15.0----29.90-- 87.4----
2024-05-29 09:30 pmSSE 12.0 17.1----29.89-- 87.4----
2024-05-29 09:24 pmSSE 12.0 18.1----29.89-- 87.4----
2024-05-29 09:18 pmSSE 12.0 15.0----29.88-- 87.4----
2024-05-29 09:12 pm S 12.0 15.9----29.88-- 87.4----
2024-05-29 09:06 pmSSE 12.0 14.0----29.88-- 87.4----
2024-05-29 09:00 pmSSE 12.0 14.0----29.87+0.00- 87.6----
2024-05-29 08:54 pmSSE 13.0 14.0----29.87-- 87.6----
2024-05-29 08:48 pmSSE 11.1 15.9----29.87-- 87.6----
2024-05-29 08:42 pmSSE 14.0 15.9----29.86-- 87.6----
2024-05-29 08:36 pmSSE 14.0 15.9----29.86-- 87.6----
2024-05-29 08:30 pmSSE 12.0 14.0----29.86-- 87.6----
2024-05-29 08:24 pm SE 14.0 15.9----29.86-- 87.6----
2024-05-29 08:18 pm SE 14.0 18.1----29.85-- 87.8----
2024-05-29 08:12 pm SE 13.0 17.1----29.85-- 87.8----
2024-05-29 08:06 pmSSE 13.0 15.0----29.85-- 87.8----
2024-05-29 08:00 pmSSE 14.0 17.1----29.86-0.02- 87.8----
2024-05-29 07:54 pmSSE 14.0 15.9----29.86-- 87.8----
2024-05-29 07:48 pmSSE 13.0 15.9----29.86-- 87.8----
2024-05-29 07:42 pmSSE 14.0 15.9----29.86-- 87.8----
2024-05-29 07:36 pmSSE 13.0 15.9----29.86-- 87.8----
2024-05-29 07:30 pmSSE 15.0 17.1----29.86-- 87.8----
2024-05-29 07:24 pm SE 15.0 17.1----29.86-- 87.8----
2024-05-29 07:18 pmSSE 14.0 18.1----29.86-- 88.0----
2024-05-29 07:12 pm SE 15.0 15.9----29.86-- 88.0----
2024-05-29 07:06 pm SE 13.0 15.9----29.86-- 88.0----
2024-05-29 07:00 pm SE 13.0 15.0----29.86-0.04- 88.0----
2024-05-29 06:54 pm SE 13.0 20.0----29.86-- 88.0----
2024-05-29 06:48 pm SE 14.0 19.0----29.86-- 88.0----
2024-05-29 06:42 pm SE 15.0 18.1----29.86-- 88.0----
2024-05-29 06:36 pm SE 14.0 18.1----29.87-- 88.0----
2024-05-29 06:30 pm SE 15.0 18.1----29.87-- 88.0----
2024-05-29 06:24 pmSSE 13.0 17.1----29.87-- 88.0----
2024-05-29 06:18 pm SE 14.0 19.0----29.87-- 88.0----
2024-05-29 06:12 pm SE 18.1 20.0----29.87-- 87.8----
2024-05-29 06:06 pmSSE 15.9 18.1----29.87-- 87.8----
2024-05-29 06:00 pmSSE 15.9 18.1----29.87-0.05- 87.8----
2024-05-29 05:54 pmSSE 12.0 17.1----29.87-- 87.8----
2024-05-29 05:48 pm SE 15.0 17.1----29.87-- 87.8----
2024-05-29 05:42 pm SE 14.0 17.1----29.88-- 87.8----
2024-05-29 05:36 pm SE 15.0 18.1----29.88-- 87.8----
2024-05-29 05:30 pm SE 15.9 18.1----29.88-- 87.6----
2024-05-29 05:24 pm SE 14.0 15.9----29.88-- 87.6----
2024-05-29 05:18 pm SE 14.0 19.0----29.88-- 87.6----
2024-05-29 05:12 pm SE 14.0 20.0----29.88-- 87.6----
2024-05-29 05:06 pm SE 15.0 17.1----29.88-- 87.6----
2024-05-29 05:00 pm SE 14.0 18.1----29.88-0.06- 87.6----
2024-05-29 04:54 pm SE 15.0 18.1----29.88-- 87.6----